Location: Cuiry
(49.3858°N, 3.7708°E)
Time: 01:52:05
(UTC+00:00)

UNK - Pass Details

Date: 14 April 2026
Orbit: 653 x 673 km, 98.4° (Epoch: 19 May)

Event Time Altitude Azimuth Distance (km) Brightness Sun altitude
Rises 19:18:50 0° 358° (N) 3,015 7.5 -7.4°
Reaches altitude 10° 19:22:34 10° 327° (NNW) 2,090 7.3 -7.9°
Maximum altitude 19:24:05 12° 307° (NW) 1,980 7.7 -8.1°
Drops below altitude 10° 19:25:37 10° 287° (WNW) 2,082 7.9 -8.4°
Sets 19:29:18 0° 255° (WSW) 2,983 7.9 -8.9°
